O3B FM20

Last updated on Wed Jun 24 2026 00:03:25 GMT+0000 (Coordinated Universal Time)

1 44112U 19020A 26173.60904584 -.00000022 00000+0 00000+0 0 9992 2 44112 0.0522 357.9817 0002424 85.3388 276.7055 5.00115604131841
UTC large
Height (km)
Speed (km/s)
/
Latitude / Longitude
Inclination (degrees)
Orbital Period (minutes)
Azimuth
Elevation
Range (km)
Doppler Factor

Next 0 passes for location: London (51.5072 / 0.1276)

No passes found over London.
O3B FM20